sat.trackr.live / text

‹ back to catalog

GSAT-14

NORAD 39498 · 2014-001A

PAYLOAD ACTIVE UNKNOWN

§ Identity

Operator
Country
IND
Launch date
2014-01-05
Launch site
SRILR
Launch vehicle
Mass (kg)
RCS (m²)
4.83

Purposes: comms

External: N2YO · Heavens-Above · Gunter

§ Orbital elements

Epoch: 2026-05-25T02:23:00.638016Z

Period
1,436.10 min
Inclination
0.0474°
Eccentricity
0.0000572
Mean motion
1.00271328 rev/d
Perigee alt
35,784.3 km
Apogee alt
35,789.1 km
Semi-major
42,164.9 km
B*
0.0000e+0
RAAN
108.6954°
Arg perigee
250.6846°
Mean anomaly
353.0715°
Rev number
4,514

§ Raw data

GSAT-141 39498U 14001A   26145.09931294 -.00000079  00000+0  00000+0 0  99992 39498   0.0474 108.6954 0000572 250.6846 353.0715  1.00271328 45140

JSON: /api/v1/satellites/39498 · /tle

For live sub-satellite position, see the globe view (requires WebGL).

§ Visibility from observer

Set your observer location to see the next 7 days of passes ≥ 10°. The values pass through the URL so the page stays shareable.

No JS? Fill the form by hand. The geolocation button needs JavaScript.